Regional Weather Roundup
Issued by NWS Tiyan, Guam

Home | Current Version | Previous Version | Text Only | Print | Product List | Glossary On
Versions: 1 2 3 4 5 6 7 8 9 10 11 12 13 14 15 16 17 18 19 20 21 22 23 24 25 26 27 28 29 30 31 32 33 34 35 36 37 38 39 40 41 42 43 44 45 46 47 48 49 50
000
ASGM40 PGUM 170712
RWRGUM
WEATHER ROUNDUP FOR THE MARIANAS
NATIONAL WEATHER SERVICE TIYAN GU
500 PM CHST THU AUG 17 2017

GUZ001>004-170800-
MARIANA ISLANDS-

CITY           SKY/WX    TMP DP  RH WIND       PRES   REMARKS
GUAM AIRPORT   MOSUNNY   79  79 100 SE7       29.77F
ANDERSEN AFB   PTSUNNY   77  75  94 SE10      29.82F
ROTA AIRPORT   PTSUNNY   82  75  78 SE17      29.77S
TINIAN AP      NOT AVBL
SAIPAN AP      MOSUNNY   88  75  66 SE9       29.77R HX  97

$$




USA.gov is the U.S. government's official web portal to all federal, state and local government web resources and services.